Temp
19 20 20 21 21 21 22 22 22 22 23 23 24 24 24 25 26 25 28 24 24 25 25 25 27 28 28 27 26 28 29 29 26 26 22 20 19 19 19 18 17 17 17 16 15
19 20 20 21 21 22 22 22 22 23 23 23 24 24 25 25 26 30 25 25 25 26 25 29 30 29 28 27 27 27 28 23 23 23 21 21 20 19 19 18 17 17 17 16 16
19 20 20 21 21 22 22 22 22 23 23 24 24 24 25 25 29 29 25 26 26 26 26 28 29 29 27 26 24 24 24 21 21 22 21 19 18 19 18 16 15 15 15 16 15
19 20 20 21 21 22 22 22 23 23 24 24 24 24 25 26 28 27 25 25 26 26 28 29 30 28 25 24 24 22 21 21 20 20 19 18 17 16 16 14 15 15 15 15 15
20 20 20 21 21 22 22 23 23 24 24 24 24 24 25 30 27 25 24 25 26 27 28 30 30 28 26 24 23 21 20 20 19 19 18 18 16 15 14 15 15 15 16 15 15
20 20 21 21 21 22 23 23 23 24 24 25 25 25 27 29 24 25 24 25 25 27 28 29 28 27 23 22 23 21 20 19 18 18 17 17 16 16 15 15 16 16 16 15 14
20 21 21 21 22 22 23 23 24 24 25 25 25 26 29 26 24 24 25 24 25 26 26 26 26 27 23 21 22 21 19 19 18 18 17 18 16 14 15 16 16 16 16 15 14
20 20 21 21 22 22 23 24 24 25 25 25 26 26 27 24 24 24 25 25 24 24 24 24 24 24 23 22 22 22 22 21 19 18 18 17 18 14 15 16 15 16 16 15 14
20 21 21 22 22 23 23 24 24 25 25 25 26 28 27 24 25 23 23 25 25 25 24 24 25 23 23 25 24 22 25 24 19 19 18 17 18 14 15 15 15 16 16 15 14
20 20 21 22 22 23 24 24 25 25 25 25 26 29 27 26 24 23 23 23 26 26 27 27 27 27 26 26 26 26 26 24 23 19 18 18 18 15 14 15 15 15 15 14 14
20 20 21 22 23 23 25 25 28 28 27 26 26 26 26 25 23 24 23 25 26 27 28 26 27 24 22 22 22 23 24 23 19 18 18 19 18 15 15 15 15 15 14 14 13
19 20 21 22 23 23 24 28 26 25 26 24 25 25 24 23 26 25 24 27 27 27 26 27 24 21 21 22 22 23 24 23 18 17 17 19 17 16 15 15 15 15 14 13 13
19 20 20 22 23 23 25 24 22 23 28 25 25 26 25 25 24 23 24 25 26 26 26 25 21 20 21 22 23 22 22 22 20 17 17 18 18 15 15 15 15 15 14 13 12
18 20 20 22 23 24 25 22 22 22 28 26 25 25 25 25 23 22 21 23 25 25 24 22 21 21 21 21 20 23 18 18 19 18 22 18 21 17 17 15 15 15 14 13 12
18 19 20 21 23 26 23 22 22 25 27 25 25 24 24 25 23 23 20 24 24 23 23 21 21 21 22 19 19 20 17 18 19 19 20 18 19 16 15 16 14 14 13 12 12
18 19 20 21 22 22 21 22 24 27 27 25 25 25 25 24 23 23 23 23 22 23 22 20 19 19 18 18 18 17 19 19 19 20 21 20 19 19 18 14 13 13 12 12 11
18 18 19 20 25 21 21 25 27 27 26 26 25 25 26 25 24 23 23 24 24 25 25 21 20 19 18 20 19 20 22 24 23 23 24 18 18 19 14 12 12 11 12 12 11
18 18 19 20 19 21 23 27 26 28 28 24 25 25 26 24 23 23 24 25 21 22 25 26 23 19 18 18 18 20 20 22 21 23 23 17 20 16 14 13 13 12 11 11 10
18 19 20 20 19 20 26 26 28 29 27 25 24 25 26 24 23 24 24 24 21 20 24 25 22 17 16 17 17 20 21 17 19 20 19 23 17 14 13 14 14 12 12 11 10
17 21 23 19 19 22 25 26 28 24 24 25 26 27 27 25 24 24 25 20 20 18 19 22 23 18 16 16 17 18 17 19 20 18 19 24 23 20 13 14 13 12 11 10 10
17 22 19 19 20 25 25 27 26 23 23 25 27 26 27 25 26 26 25 18 18 18 18 20 22 19 17 19 19 19 20 18 18 19 20 21 21 18 14 12 11 12 11 10 9
19 21 18 19 23 25 26 27 19 22 21 23 24 25 26 25 25 25 25 21 17 18 20 20 22 24 20 16 15 16 18 18 19 19 18 16 18 15 13 12 10 11 11 10 9
20 22 19 20 23 23 23 22 22 21 23 22 23 23 22 24 24 23 21 15 15 17 19 19 22 24 19 16 16 16 16 16 15 15 16 16 20 15 13 12 12 11 10 10 9
19 20 21 21 23 23 24 24 22 19 22 22 23 22 22 22 21 20 19 15 14 16 13 15 20 22 23 21 19 17 15 15 17 16 18 18 19 14 14 13 12 11 10 10 9
18 20 19 21 22 23 25 25 23 21 20 22 21 22 23 21 22 21 20 15 14 14 15 17 20 20 21 18 17 18 17 14 13 17 16 19 18 18 15 12 11 10 10 9 9
18 18 17 18 19 22 20 21 24 24 21 21 22 23 24 24 24 23 20 20 20 15 17 17 20 19 21 17 16 16 17 17 15 15 15 16 16 14 12 11 11 11 9 9 8
16 14 17 15 20 21 21 23 23 24 20 19 22 23 22 22 20 21 20 21 20 18 18 18 19 19 23 17 17 19 19 17 17 16 17 17 16 13 12 11 11 10 9 8 7
Height
813 811 810 810 810 809 809 809 809 808 807 806 804 803 801 800 798 796 796 801 796 792 790 790 789 788 786 788 790 786 790 794 812 811 831 839 845 849 852 856 859 861 865 867 865
814 812 811 811 810 810 810 810 809 808 807 805 804 802 801 799 798 794 800 796 793 790 790 788 785 785 788 792 793 792 796 822 824 823 832 837 843 850 851 856 861 862 865 866 864
815 813 812 811 811 811 811 810 809 808 806 805 803 802 800 798 796 797 797 793 790 788 789 788 786 786 796 798 805 808 815 828 830 830 835 846 851 849 855 863 869 869 867 866 864
815 814 813 812 812 811 811 810 809 807 806 805 803 801 800 800 807 800 797 792 790 789 789 787 784 792 803 809 808 823 828 830 840 841 844 850 856 863 863 871 872 872 870 867 865
816 815 814 813 812 811 811 810 808 807 805 804 803 801 800 794 803 803 798 794 792 790 788 784 784 792 805 812 814 827 835 839 844 847 851 854 859 864 870 872 872 870 868 868 867
817 815 814 813 812 811 810 809 808 806 805 803 802 801 799 800 807 804 800 797 794 792 789 787 789 795 811 819 816 829 837 845 849 853 856 858 862 861 871 871 868 866 866 867 866
817 815 814 814 812 811 810 808 807 805 804 803 802 801 798 808 807 806 803 800 796 795 796 797 797 797 812 828 828 832 842 846 850 851 857 855 863 869 871 868 865 865 864 865 864
816 815 814 813 812 811 809 807 806 804 803 803 802 801 804 808 808 807 805 804 802 801 800 802 802 806 812 823 829 829 832 837 845 851 854 857 850 870 870 867 866 864 862 864 864
815 815 813 812 811 810 808 806 805 804 803 802 802 799 804 807 807 808 807 805 804 804 804 804 804 813 820 814 820 826 814 819 846 846 850 856 849 868 870 867 866 863 862 863 862
815 813 813 811 810 809 807 806 805 804 804 803 801 802 804 807 808 808 807 806 804 803 801 801 800 804 806 809 813 814 808 818 825 843 849 847 848 866 869 868 865 863 862 863 861
813 813 811 810 809 808 806 805 805 803 804 807 806 805 806 809 808 808 808 806 802 799 802 804 805 822 828 827 825 821 818 821 839 846 847 840 845 861 867 864 866 864 863 862 861
813 812 811 809 808 807 806 802 804 807 808 808 808 807 810 809 806 806 806 804 801 804 805 807 825 830 831 827 827 823 819 821 842 848 849 840 847 855 861 864 865 863 864 862 861
812 811 809 808 807 806 805 805 805 806 801 809 807 806 809 809 813 813 810 807 806 809 807 813 832 834 833 828 826 827 829 829 836 847 846 844 842 854 857 862 860 860 863 863 863
812 809 809 807 808 805 805 805 805 806 805 808 809 809 809 809 816 817 817 816 812 818 818 828 833 833 831 833 835 823 842 842 840 845 824 841 826 844 848 856 856 858 861 862 861
812 808 808 808 806 803 807 805 805 807 823 808 809 810 810 812 816 817 819 812 817 822 824 837 835 835 832 842 840 839 844 840 837 836 833 837 836 847 852 850 856 859 862 864 863
811 808 808 807 806 805 805 805 807 818 819 812 807 809 809 812 816 816 816 817 820 820 824 837 841 842 845 844 845 846 839 839 836 829 825 825 832 833 838 857 859 861 862 863 863
810 808 807 807 802 804 804 804 814 818 801 811 810 808 806 814 818 818 820 819 819 823 822 834 841 844 846 839 841 834 827 816 818 819 809 833 837 830 852 861 864 865 864 863 863
808 807 806 806 804 804 804 804 820 796 796 806 807 808 809 813 820 821 820 817 828 825 817 816 830 845 846 850 846 839 838 831 843 817 814 837 825 840 852 859 859 863 864 863 862
807 806 805 805 804 804 801 810 798 789 796 806 810 811 810 816 817 819 818 818 829 832 824 817 834 852 854 851 854 836 835 850 842 833 835 803 835 848 854 853 856 860 862 863 863
808 804 801 801 804 803 802 800 790 798 803 802 805 800 801 809 816 816 815 830 834 838 835 827 829 846 855 855 852 846 851 843 835 849 839 794 800 817 851 852 857 859 861 862 863
809 801 799 800 805 798 802 790 790 801 803 804 799 805 801 809 807 808 811 838 836 839 838 832 830 848 851 845 841 844 839 848 848 845 839 827 813 830 846 856 860 859 859 862 862
807 803 799 800 804 790 793 784 802 802 806 804 804 803 803 807 810 809 813 825 838 836 833 834 828 820 837 854 856 853 845 846 844 844 846 855 835 841 851 858 863 859 860 861 861
804 794 800 800 799 795 795 799 799 806 802 805 805 807 810 810 817 816 823 845 845 841 837 836 826 821 844 856 856 852 850 854 857 858 851 851 820 844 851 854 855 859 860 861 863
807 801 797 798 788 789 789 794 800 806 801 801 803 808 813 815 818 824 828 844 847 844 851 847 831 826 822 828 837 848 855 857 848 851 839 836 820 842 841 847 852 856 860 862 861
804 797 794 795 792 789 781 780 792 803 804 802 808 803 804 816 816 818 825 843 847 848 846 842 831 829 824 837 842 838 840 857 859 837 846 821 827 825 834 847 852 857 859 860 861
802 802 798 797 794 788 794 792 786 788 797 800 800 793 797 802 800 807 819 823 823 843 841 841 830 834 823 838 842 842 836 838 845 847 842 835 832 836 844 849 852 852 857 860 862
802 802 799 800 791 789 788 782 783 782 795 797 792 794 801 802 811 810 815 813 818 829 835 837 834 833 814 836 838 826 817 828 828 830 830 827 825 836 843 849 848 852 859 861 862
Wind_Speed
10 8 5 1 1 2 1 1 3 5 6 8 9 10 10 9 6 6 6 12 12 15 10 4 2 1 3 4 6 4 5 1 4 2 10 11 6 8 10 12 13 9 8 8 13
10 8 4 1 1 2 1 2 6 7 8 8 10 12 11 10 7 4 10 18 16 10 5 7 2 2 3 4 5 5 3 6 4 5 11 7 9 8 6 8 9 8 10 12 16
10 8 5 1 0 1 2 6 7 8 7 8 11 12 7 2 8 7 18 18 9 5 6 3 3 3 7 6 8 6 4 8 8 13 12 13 9 4 6 7 7 9 11 14 17
9 8 5 2 1 2 5 7 8 8 7 9 10 7 4 5 2 12 20 17 9 1 4 4 4 2 4 6 3 11 8 8 9 11 13 10 9 12 10 5 4 5 9 14 17
7 7 5 3 3 4 6 8 9 9 8 8 9 5 5 3 7 15 18 14 7 2 2 3 1 4 6 8 15 16 14 12 11 12 11 10 9 10 8 3 2 6 9 13 16
7 6 5 4 4 5 6 9 10 9 9 9 7 2 7 2 5 12 12 14 9 9 10 3 8 14 11 6 6 14 16 16 12 11 11 10 6 1 5 2 4 7 9 13 16
7 5 5 5 5 6 8 10 10 9 8 6 3 5 8 6 4 8 11 18 14 5 12 9 6 5 8 14 17 19 13 11 9 7 8 8 5 6 3 3 6 9 10 12 15
8 7 6 6 7 7 10 11 10 6 4 2 1 4 5 1 2 7 5 11 11 16 19 16 15 11 6 17 8 5 11 7 8 8 7 3 3 5 1 4 6 9 11 12 16
9 7 7 7 7 7 11 9 3 1 2 2 4 7 5 2 1 6 5 4 7 8 9 8 7 8 9 6 7 8 5 1 6 9 3 9 2 6 1 2 7 11 12 13 14
10 9 7 7 7 8 8 2 3 3 4 4 2 4 3 2 4 5 2 2 4 3 3 1 3 5 3 4 5 7 6 2 2 7 9 9 3 6 3 3 8 12 13 13 15
10 10 7 7 8 8 6 5 6 6 6 5 4 2 4 2 1 6 4 4 3 6 4 2 1 6 7 6 6 5 4 2 2 2 6 8 5 7 5 3 8 13 12 13 15
10 10 8 7 7 7 5 5 4 4 2 2 3 4 3 1 3 12 10 4 4 2 2 4 6 3 2 5 3 3 4 1 3 3 5 4 7 8 6 2 6 11 12 14 16
12 9 8 7 6 4 3 1 1 3 5 4 2 2 2 2 4 9 10 2 5 7 4 6 4 1 3 5 4 1 6 6 5 3 8 6 10 8 8 4 4 10 9 13 16
13 9 9 6 3 2 1 3 0 3 5 10 5 3 1 1 3 6 6 3 1 3 5 6 3 1 1 1 8 5 5 5 5 5 3 4 3 9 7 5 6 10 11 12 14
13 8 9 5 5 2 2 1 1 3 5 4 4 2 3 1 2 4 3 2 3 4 3 5 3 7 3 4 6 5 3 4 4 8 6 7 5 7 6 5 9 12 10 12 14
12 9 8 5 4 2 3 1 2 6 5 4 4 5 5 2 2 1 2 5 2 3 10 6 2 4 6 2 2 2 3 2 3 4 5 6 2 7 3 2 9 11 10 12 14
11 9 6 6 0 4 3 4 5 8 1 5 4 5 3 3 3 1 1 2 2 4 6 5 4 3 5 5 5 8 8 3 4 5 4 5 4 6 8 4 7 9 11 12 13
10 8 6 8 3 5 6 6 9 3 1 3 3 6 5 5 2 2 2 3 3 2 3 3 5 4 6 4 4 5 5 3 5 5 7 4 3 5 7 1 5 6 7 11 12
10 5 6 5 5 5 7 10 5 3 4 6 5 7 7 4 2 4 2 1 3 3 3 3 4 4 5 4 3 4 2 2 5 3 5 3 6 5 5 3 7 6 7 10 12
7 6 8 6 6 7 8 13 4 3 3 5 7 6 7 8 6 5 5 2 3 1 3 3 2 1 3 3 3 3 1 3 3 5 6 5 3 3 6 4 7 8 9 11 12
4 4 3 7 5 7 11 15 5 4 2 5 4 2 5 4 8 4 2 2 1 3 2 2 2 5 3 3 3 2 2 1 3 2 3 6 3 6 7 4 6 7 7 10 11
5 4 2 7 7 9 12 8 2 7 4 3 3 3 6 5 5 5 3 3 2 2 1 2 3 2 4 3 2 3 2 3 2 1 2 3 3 4 6 4 2 5 6 8 9
3 4 1 6 8 9 4 3 2 5 7 6 6 3 1 5 4 3 3 2 3 3 0 2 3 3 4 3 3 5 4 1 2 0 6 2 2 5 3 3 2 4 5 7 9
3 4 4 6 5 8 13 12 8 3 4 4 5 4 5 5 3 5 6 3 3 1 1 1 3 5 4 3 1 3 6 8 6 3 2 10 11 7 5 2 2 2 4 7 8
3 3 2 6 11 11 12 7 15 8 5 8 5 11 9 5 6 6 5 5 4 5 4 3 4 3 4 3 4 7 7 10 11 10 5 1 11 13 6 1 1 1 3 6 8
3 3 1 2 3 15 7 10 13 9 11 8 9 13 11 6 5 7 9 7 4 9 6 4 1 2 4 3 6 10 11 11 14 14 16 17 16 5 5 3 2 1 2 5 7
3 3 3 2 4 8 13 13 14 10 5 3 11 7 11 4 5 8 6 5 7 7 10 6 3 2 2 2 5 9 13 14 8 8 7 7 3 7 4 3 4 2 2 5 6
Wind_Direction
359 350 344 343 159 145 151 22 336 328 324 320 316 315 318 321 300 260 36 332 317 315 318 290 223 138 50 55 20 308 259 73 40 185 126 139 115 83 94 90 69 72 50 2 338
4 356 350 329 175 175 289 331 326 324 322 322 319 314 311 310 281 10 346 330 320 308 268 237 199 216 71 27 18 358 331 46 21 93 131 129 110 126 123 70 57 45 21 356 345
9 4 357 2 189 245 308 318 320 319 322 326 323 318 317 307 261 26 341 337 331 305 248 258 110 75 59 50 14 24 75 108 78 94 112 109 103 117 132 67 35 10 353 349 347
11 7 0 350 316 307 317 319 320 317 320 329 331 331 331 262 351 353 343 353 2 101 228 210 217 84 80 47 56 107 78 102 102 111 122 109 105 79 61 78 25 355 342 348 348
7 8 356 342 317 319 321 323 321 315 315 322 330 309 291 191 27 343 358 2 10 4 302 257 273 119 98 105 87 92 103 98 104 102 105 111 88 96 83 70 4 338 355 353 351
354 359 352 332 317 319 323 324 320 313 312 318 325 297 264 251 355 2 11 24 33 75 60 48 72 89 81 61 36 118 112 113 116 115 126 117 116 206 73 334 347 352 356 356 349
339 348 342 324 313 313 323 322 315 309 310 318 245 333 57 62 30 18 32 44 48 62 77 69 100 335 108 98 114 122 113 124 146 145 139 145 135 78 44 306 352 354 353 352 352
336 329 330 321 310 313 324 320 310 303 300 297 310 254 61 107 25 12 25 56 64 77 87 88 86 74 81 120 148 151 164 178 168 177 160 266 95 111 48 355 355 344 355 355 353
332 320 319 318 311 312 328 325 328 277 26 307 270 260 112 100 348 359 18 58 86 87 83 94 83 102 143 181 172 191 298 150 161 206 151 226 4 136 204 352 351 355 353 356 353
328 318 312 314 311 311 327 279 312 314 283 262 283 215 153 77 5 339 350 339 253 195 177 199 160 143 60 306 346 336 290 131 300 177 222 235 230 163 184 338 351 350 358 353 353
328 319 307 309 310 313 329 270 219 187 48 29 24 69 105 97 212 36 339 269 226 232 255 36 50 52 29 352 331 312 307 326 95 138 257 244 226 192 197 281 356 352 354 352 354
328 318 306 304 308 306 306 282 24 352 131 79 91 95 55 300 236 32 4 254 243 233 179 182 74 53 349 23 330 282 294 63 110 169 245 234 227 189 210 265 343 353 348 351 350
326 317 307 306 307 297 294 306 312 325 256 149 107 73 49 337 41 8 352 1 44 78 67 31 54 72 275 16 316 31 344 334 308 172 245 269 235 189 216 212 301 358 0 357 354
322 316 311 310 266 216 177 157 162 319 263 152 179 117 161 133 95 14 15 336 112 116 63 67 70 330 261 58 342 285 4 291 250 232 338 205 330 184 167 195 13 359 5 357 354
321 314 308 283 332 225 114 172 215 255 270 117 124 74 130 312 77 68 6 35 47 104 252 83 45 13 24 5 333 11 331 294 243 238 302 182 258 110 170 200 355 360 360 356 354
321 313 310 269 231 223 166 140 205 233 244 129 134 162 175 97 85 98 113 71 35 88 69 89 85 31 359 322 354 343 255 210 234 260 239 108 286 137 147 28 352 353 351 356 355
317 309 282 269 249 203 186 212 221 244 112 143 158 186 209 142 122 12 75 112 296 228 181 155 68 101 354 275 205 252 275 265 226 215 351 118 253 52 126 65 4 345 348 351 356
314 303 279 239 255 194 206 213 239 25 204 88 146 164 217 170 140 164 202 192 94 284 274 250 188 356 10 24 322 354 334 0 299 323 325 144 276 102 128 130 18 349 345 352 355
313 273 238 236 226 203 227 215 242 279 71 163 156 212 182 182 275 216 243 89 63 7 293 284 128 116 55 24 313 43 353 18 279 219 273 199 119 150 167 258 12 351 354 357 354
312 263 228 222 215 212 230 233 208 84 123 207 232 220 216 178 200 206 179 85 142 349 323 65 212 148 113 263 79 338 50 244 195 324 314 304 305 57 181 347 357 356 352 355 351
284 241 124 180 207 214 223 224 172 129 197 219 250 236 264 180 229 201 106 122 201 146 271 305 256 121 201 208 8 179 192 206 282 296 303 310 83 53 104 25 352 349 350 354 351
288 235 121 164 206 215 223 224 58 162 184 190 276 261 225 180 204 222 206 58 120 176 165 62 311 273 46 100 12 306 297 291 279 152 266 274 305 112 102 38 346 323 346 350 350
251 260 144 198 216 207 168 140 202 180 193 178 189 248 205 199 218 212 152 97 141 199 343 125 192 254 180 188 194 249 179 173 116 112 233 293 2 138 149 289 2 310 343 347 353
281 222 169 208 260 253 208 216 192 207 191 203 143 155 170 184 206 183 160 147 158 180 19 278 278 265 302 7 54 203 200 206 214 240 281 245 290 162 206 321 303 305 354 354 353
218 258 341 194 219 231 211 240 203 183 224 198 188 217 197 185 185 196 149 145 173 160 190 255 272 279 269 263 238 261 236 198 214 241 245 7 298 315 0 113 304 323 342 349 356
277 254 216 323 279 215 208 218 206 187 170 204 232 192 202 210 223 186 171 186 178 175 191 187 259 292 267 190 246 261 249 232 229 249 265 274 285 94 113 126 226 252 347 349 357
202 267 282 139 219 208 217 225 216 180 196 344 219 170 198 172 82 53 79 80 132 161 186 181 216 250 273 168 282 263 239 208 215 212 224 251 50 157 183 205 238 229 352 350 349